RH
79 75 75 73 73 78 73 78 80 84 84 86 83 82 77 89 86 67 53 50 62 77 86 74 64 49 42 39 38 32 40 35 31 30 24 25 27 21 18 19 21 24 22 31 56
81 76 75 74 75 70 75 74 81 77 74 78 85 85 81 90 79 60 42 52 63 76 73 67 59 42 40 39 42 39 38 32 24 24 26 21 24 22 24 22 23 29 44 46 64
83 79 74 72 75 72 74 74 74 74 74 74 72 80 86 81 64 31 70 64 59 72 72 65 60 60 43 35 39 40 35 28 27 28 23 26 25 22 24 25 19 23 40 53 64
88 82 76 77 73 74 74 75 76 74 74 74 75 76 84 67 46 66 62 62 70 75 76 68 72 81 52 43 33 42 31 29 26 30 31 29 25 22 23 21 16 17 31 51 62
90 83 79 82 77 77 76 77 78 76 75 75 76 76 73 66 56 46 52 56 49 57 67 60 79 76 63 37 35 38 33 28 28 30 29 29 31 28 25 19 19 21 38 49 49
89 85 83 83 87 85 78 80 78 76 77 77 76 73 65 91 46 48 55 57 61 59 61 68 70 56 53 44 37 32 35 31 30 31 30 32 31 29 25 18 20 29 37 40 40
88 83 86 87 93 85 82 82 80 79 76 76 75 68 61 63 52 52 53 49 43 50 51 62 62 66 52 52 35 35 42 36 31 28 33 30 36 32 26 23 20 25 27 32 36
89 86 87 88 90 86 87 84 81 79 74 65 72 65 72 54 55 57 53 46 48 44 44 53 69 73 61 39 36 41 42 52 34 31 29 33 34 24 22 24 23 18 23 32 34
91 90 89 84 87 90 88 85 82 72 65 71 72 61 57 48 52 56 56 54 55 58 44 39 69 87 64 69 55 40 48 48 40 27 30 33 34 22 20 24 23 20 17 27 32
99 95 93 84 86 89 88 85 60 67 63 55 72 80 56 45 48 52 49 48 41 56 50 60 77 89 94 79 92 62 45 36 40 32 32 30 32 18 17 22 24 20 17 17 26
97 97 95 85 89 91 89 65 42 43 44 35 30 57 39 30 34 33 35 37 38 52 63 50 91 87 73 77 57 44 38 39 32 29 32 33 27 24 18 20 21 18 19 18 17
98 99 95 85 87 93 74 53 58 58 72 40 41 42 39 38 50 38 35 40 36 58 50 56 92 62 56 55 70 55 48 43 35 29 34 31 31 22 19 18 18 18 18 18 17
97 100 92 87 86 84 74 62 81 82 62 33 36 39 40 43 54 50 39 37 41 37 50 59 48 48 59 61 73 66 58 56 41 34 31 33 37 29 23 21 20 17 15 15 17
99 97 94 92 87 82 65 70 70 81 62 32 46 46 45 48 60 34 37 44 40 42 37 68 41 44 60 70 68 85 52 47 45 41 52 35 43 28 24 24 22 20 19 16 15
100 94 96 90 75 71 63 64 70 81 68 25 45 46 33 26 28 33 36 39 56 48 40 55 51 46 69 60 61 73 53 54 53 56 45 45 46 30 21 26 22 19 18 17 16
99 95 96 100 84 78 65 55 67 56 62 32 36 32 26 22 24 35 40 39 40 53 44 46 55 52 38 53 56 58 67 62 59 73 84 54 47 38 29 25 21 18 17 17 16
96 96 98 98 91 81 56 54 67 67 26 28 36 32 32 28 28 47 39 36 57 78 68 40 40 51 53 67 58 73 84 98 98 98 87 50 58 44 26 22 21 20 17 15 14
100 99 99 94 84 67 59 73 89 44 30 26 36 33 38 45 42 49 35 33 33 79 88 75 48 50 62 55 76 68 90 77 84 79 54 38 61 42 29 25 25 21 18 16 15
100 100 100 100 87 70 76 91 79 42 30 40 35 45 45 56 48 45 29 32 52 81 93 91 61 48 47 44 41 74 90 72 80 73 42 42 37 26 28 28 26 24 20 18 18
98 99 100 100 96 90 91 76 67 36 39 40 56 46 65 46 57 58 52 34 42 60 99 89 91 41 61 52 47 48 53 90 96 96 85 46 37 32 30 28 28 27 27 23 20
94 99 99 96 99 98 89 81 67 41 39 47 51 58 53 66 66 65 68 47 40 62 81 98 92 53 63 98 81 73 68 70 57 68 76 58 37 24 24 24 23 22 24 24 24
98 98 100 100 98 89 85 79 52 47 42 51 54 55 56 56 74 70 69 61 53 84 83 71 94 82 60 75 97 50 49 67 86 100 59 40 31 23 19 20 21 21 19 24 25
100 99 100 95 93 90 94 93 76 55 49 51 57 58 54 68 87 74 67 52 66 77 99 89 82 80 54 80 95 99 49 42 43 32 50 46 33 23 25 24 24 23 25 23 25
100 94 100 100 85 75 92 91 86 54 59 51 53 59 76 77 57 85 87 44 50 44 56 83 88 83 82 95 97 96 95 78 57 58 45 38 30 23 23 25 24 26 24 23 27
100 94 65 94 96 81 92 92 73 76 61 59 60 63 63 69 61 68 52 50 43 56 67 85 86 83 86 67 92 94 96 96 96 58 48 35 35 26 21 22 24 25 25 24 25
98 95 89 94 72 95 91 86 81 75 62 54 61 45 41 60 54 59 59 60 62 52 69 75 67 58 58 44 63 76 63 85 93 98 41 31 29 23 22 21 23 22 25 25 22
100 98 87 87 91 94 83 67 81 72 55 48 43 45 49 46 42 47 52 52 52 68 74 69 63 60 57 51 51 54 41 44 75 82 76 46 32 24 27 27 23 23 26 24 22
Wind_Speed
16 18 18 19 19 19 19 19 21 21 21 22 22 23 25 26 27 26 26 31 15 23 23 13 11 7 11 10 11 11 11 17 23 16 14 3 9 8 4 11 11 10 3 3 28
16 17 18 19 19 20 20 21 21 21 21 22 23 24 24 26 28 31 31 28 31 25 22 20 15 11 10 12 9 15 16 21 15 16 10 11 9 8 8 15 12 11 6 20 28
17 18 18 18 18 18 20 22 22 23 23 23 23 23 23 24 17 3 13 10 24 23 21 22 19 15 19 15 19 15 22 21 12 16 17 14 9 6 10 19 16 19 16 20 23
19 19 19 18 18 19 20 21 21 23 25 25 24 22 22 17 7 7 16 23 10 8 26 31 17 17 16 22 19 21 23 24 20 11 16 13 6 6 11 10 13 13 19 22 22
20 20 20 19 19 19 22 23 23 24 25 26 25 22 20 10 18 26 27 18 15 12 13 21 22 20 24 17 20 24 22 20 23 20 21 14 15 12 9 11 5 7 18 23 22
22 21 21 20 20 19 21 24 25 26 27 26 24 21 19 21 14 16 12 16 11 14 13 9 8 18 15 26 21 12 24 25 20 23 24 20 22 13 11 4 9 10 19 21 23
22 21 20 20 18 18 21 23 25 29 31 29 26 21 17 25 11 17 28 28 24 20 14 14 13 12 9 16 23 21 16 17 26 25 20 20 29 29 19 14 9 12 15 19 20
24 23 20 19 18 18 20 23 26 30 34 29 22 18 14 19 17 20 21 25 19 24 24 22 17 11 20 12 10 21 23 22 25 21 25 18 27 27 25 18 17 13 13 16 18
27 25 21 18 16 16 19 22 27 31 31 21 12 11 12 5 7 13 12 9 15 14 18 22 11 7 8 19 14 17 21 31 23 22 20 29 23 28 20 15 18 18 15 15 17
31 27 20 16 14 14 17 22 26 20 12 8 6 3 7 3 1 3 9 11 7 11 12 18 11 10 7 15 15 22 28 24 25 21 22 24 24 22 21 26 21 18 18 17 17
34 29 19 13 11 11 14 9 4 4 4 6 13 14 21 18 20 26 25 18 15 12 17 19 13 20 26 21 29 25 27 27 19 15 17 25 25 23 20 15 23 24 24 20 19
34 29 20 14 9 9 8 3 1 4 11 17 23 21 30 20 10 14 17 13 15 18 16 18 24 28 27 28 29 30 25 22 17 20 13 12 21 23 23 25 21 21 21 21 23
34 28 19 14 10 8 5 2 3 2 6 9 3 5 3 7 6 6 5 6 21 23 19 23 30 30 31 28 25 27 29 24 16 11 15 13 19 21 22 20 22 25 23 22 22
33 27 21 15 7 7 4 6 3 2 5 3 2 3 2 3 6 11 10 7 8 20 21 19 29 28 31 30 25 25 27 24 19 11 10 17 14 22 23 20 23 22 24 25 24
34 27 23 23 10 7 5 1 3 3 5 2 5 4 1 6 10 3 9 5 17 20 17 23 20 33 29 37 28 16 22 26 23 22 18 12 9 17 14 17 23 24 22 22 24
31 26 24 21 14 6 4 1 3 1 8 1 2 1 9 10 9 7 6 6 9 14 21 27 17 16 36 27 29 17 18 21 18 15 15 25 19 17 20 24 19 18 20 22 23
30 26 25 20 8 12 7 3 2 4 2 2 0 5 15 16 11 4 10 11 8 7 16 23 28 24 23 21 29 29 19 8 8 8 8 22 18 21 19 23 21 21 20 21 21
28 27 21 15 20 20 8 3 5 5 6 3 4 14 6 6 4 6 11 13 8 6 13 11 19 26 15 31 20 30 16 15 13 7 13 18 15 18 27 24 14 18 18 15 18
29 19 19 22 24 19 5 3 5 5 2 2 9 5 3 4 4 8 10 15 4 3 5 4 12 6 19 29 29 21 25 10 1 7 11 10 20 13 7 16 22 19 17 17 17
20 8 7 23 24 15 3 6 6 6 4 2 3 3 5 6 7 4 5 6 3 2 2 4 8 12 8 23 31 33 18 18 8 8 7 9 17 10 20 18 17 21 21 20 18
14 4 9 20 16 3 4 7 6 9 8 6 4 5 9 8 5 4 6 11 9 2 4 6 5 6 5 8 21 23 19 13 12 12 7 6 7 7 15 19 19 21 18 15 13
5 3 17 29 4 4 7 6 5 6 8 8 6 11 14 8 7 6 7 5 11 9 8 4 4 7 12 6 15 30 31 27 10 9 8 11 12 8 15 18 19 18 14 8 10
3 3 14 15 5 7 2 1 6 7 11 5 8 10 5 7 5 8 7 4 4 3 6 4 2 7 6 4 7 4 29 25 25 19 21 17 14 5 3 10 6 9 7 7 8
3 4 3 3 3 7 6 4 5 8 12 10 9 10 9 7 9 5 3 5 7 11 14 10 5 7 8 5 5 8 14 14 26 18 20 19 22 13 6 4 8 9 6 6 7
3 5 6 7 12 11 12 8 10 6 11 8 6 11 5 4 8 6 5 11 7 3 5 2 7 13 10 14 9 15 12 12 11 26 25 20 27 19 17 10 4 4 6 7 9
5 4 3 3 12 18 16 14 16 11 10 11 13 12 10 12 13 12 9 4 5 5 8 5 4 12 14 11 5 13 16 13 12 11 29 29 29 20 18 13 10 6 6 5 9
3 2 3 9 9 11 12 18 17 14 13 17 12 11 10 14 10 8 7 12 14 15 11 7 4 7 8 10 18 11 10 15 9 12 13 25 30 16 17 21 21 10 8 8 9
Wind_Direction
327 331 331 331 330 329 329 324 323 325 325 323 323 319 320 319 312 300 272 248 236 249 263 264 279 228 211 224 220 220 229 237 235 235 242 214 222 200 259 221 198 187 301 85 149
316 321 322 322 322 323 325 325 324 320 318 316 317 319 321 322 311 291 274 259 241 236 246 247 256 233 214 216 208 213 223 235 242 234 248 246 249 236 199 200 196 178 104 143 150
300 308 310 311 313 316 317 320 317 317 316 312 310 313 319 324 304 298 30 12 242 236 241 246 254 253 233 223 212 221 235 230 240 237 241 260 261 228 225 209 198 191 162 161 164
289 296 297 299 303 307 311 311 313 314 312 308 309 308 311 313 276 165 359 344 357 269 249 242 240 227 232 225 223 236 231 242 242 222 233 238 264 233 231 214 226 215 166 165 174
281 285 290 293 296 298 304 305 305 307 305 304 308 310 308 276 248 279 315 338 325 321 306 219 214 219 227 227 229 228 242 236 241 242 238 239 253 261 253 249 233 192 165 182 187
276 280 284 286 285 288 297 300 302 304 301 299 300 302 287 273 268 281 294 323 343 336 299 257 209 223 248 237 224 219 237 244 236 239 238 242 248 235 237 265 212 188 192 190 195
270 272 277 282 283 287 292 296 300 300 298 297 293 286 264 248 271 285 295 291 289 289 280 281 250 233 215 252 241 241 242 238 236 235 238 239 249 237 242 254 245 211 208 204 203
262 263 267 276 276 283 290 296 298 297 297 297 288 273 265 269 261 273 279 292 289 265 254 253 273 273 243 256 249 226 234 246 230 228 229 219 245 236 233 236 239 229 213 207 204
253 254 257 270 275 285 295 297 296 296 295 295 272 234 266 295 244 262 250 282 294 274 241 236 230 218 226 225 230 219 222 230 240 215 219 220 242 241 228 223 238 233 218 209 210
247 247 249 262 272 287 299 301 298 296 295 269 240 220 244 284 17 245 265 287 308 297 228 214 211 228 190 206 207 216 226 233 230 219 216 225 233 239 226 226 232 233 225 217 212
243 241 238 255 268 290 310 324 329 254 314 277 269 254 290 291 276 275 273 282 286 239 228 206 215 217 216 201 220 221 232 233 222 221 211 224 231 232 229 221 226 231 229 222 222
238 230 221 233 248 271 304 299 153 306 289 283 258 263 267 275 283 272 257 251 231 242 237 234 224 216 221 211 220 223 235 243 247 215 211 217 235 236 230 231 224 226 225 225 224
229 217 211 216 227 266 212 242 150 271 272 293 256 243 276 189 229 273 197 229 238 247 238 230 231 222 213 218 222 221 224 230 238 190 225 241 245 240 238 239 236 232 232 222 222
220 205 197 193 214 190 217 156 319 271 285 254 223 200 168 227 254 249 239 243 228 249 235 254 241 237 224 227 213 220 211 215 227 190 214 200 249 223 228 216 226 225 227 230 231
202 197 189 188 156 170 131 185 326 183 305 95 132 144 213 326 316 151 313 243 254 256 235 232 240 218 232 223 213 236 211 215 213 236 247 215 249 238 211 222 223 220 220 224 230
197 189 184 181 178 154 158 51 139 222 248 99 135 340 339 325 296 299 294 275 268 266 248 254 275 274 228 234 220 185 212 211 222 222 232 225 224 234 228 225 227 220 219 223 227
187 181 174 172 145 170 144 106 106 214 40 159 246 343 322 302 301 290 314 307 278 274 248 247 241 251 265 258 223 208 190 175 202 209 221 204 218 231 222 229 218 220 222 224 228
171 168 174 156 141 145 118 97 194 240 249 318 347 322 289 344 295 312 303 303 278 305 272 267 244 215 232 237 223 220 198 201 197 182 220 203 216 229 224 237 213 241 232 227 227
154 157 157 151 155 145 120 172 215 230 234 279 316 279 256 221 314 305 289 284 271 53 318 297 253 290 243 225 227 219 214 225 121 318 234 175 238 241 209 223 219 217 221 219 217
129 102 128 157 163 129 150 219 225 222 202 226 274 248 279 306 318 310 293 276 273 108 129 309 294 259 279 243 220 223 202 192 205 190 208 194 231 231 192 209 209 220 226 227 233
118 122 164 161 146 160 211 208 233 228 218 223 200 265 269 289 260 269 267 288 271 270 233 261 252 250 298 243 197 203 210 219 212 227 227 231 221 184 205 213 206 213 219 212 221
117 160 168 153 161 197 216 176 224 219 212 239 244 249 261 263 260 259 252 253 339 310 282 223 282 282 267 234 286 215 204 197 192 153 218 237 233 165 217 210 210 216 222 172 201
108 104 171 168 200 204 100 174 237 229 232 235 231 224 234 252 263 240 267 321 35 342 320 322 258 304 285 131 300 268 205 212 220 224 205 211 217 119 217 225 205 211 207 201 196
124 138 160 210 248 203 179 203 223 229 247 235 254 253 247 269 263 288 341 301 289 297 281 288 229 250 295 339 308 299 309 293 203 214 220 222 239 192 192 211 197 193 188 182 179
162 187 178 187 210 199 167 182 201 218 222 214 225 236 263 265 272 269 284 324 309 325 334 75 307 310 320 303 278 281 299 300 293 219 218 204 221 224 225 238 120 133 161 155 167
154 166 181 191 210 197 186 201 206 218 227 220 235 254 274 254 249 274 297 294 278 304 341 322 283 322 305 297 307 286 270 257 271 292 221 226 238 210 227 252 263 146 146 182 185
164 144 188 177 180 183 205 213 205 219 240 233 233 259 249 258 275 278 279 274 270 282 290 286 290 333 295 336 312 280 246 212 219 236 234 215 230 217 211 222 233 231 189 206 226